BSAT-4B

Last updated on Sat Mar 14 2026 00:02:57 GMT+0000 (Coordinated Universal Time)

1 46112U 20056A 26072.59191232 -.00000350 00000+0 00000+0 0 9993 2 46112 0.0293 164.2210 0002083 279.4061 50.5123 1.00271591 20439
UTC large
Height (km)
Speed (km/s)
/
Latitude / Longitude
Inclination (degrees)
Orbital Period (minutes)
Azimuth
Elevation
Range (km)
Doppler Factor

Next 0 passes for location: London (51.5072 / 0.1276)

Sorry there are no passes over London.